When you browse on this site, cookies collect data to enhance your experience and personalize the content and advertising you see.
Visit our Privacy Policy to learn more. By continuing to use the site, you agree to this use of cookies and data.

Meteo pe oră la Dziegiele

Astăzi, 18 Septembrie, Vineri

Timp Temperatura Precipitaţii Vânt Presiune Umiditate
00:00 +7°C° 0 mm 4 m/s 754 mmHg 75%
01:00 +7°C° 0 mm 4 m/s 754 mmHg 76%
02:00 +7°C° 0 mm 4 m/s 754 mmHg 77%
03:00 +7°C° 0 mm 4 m/s 754 mmHg 78%
04:00 +6°C° 0 mm 4 m/s 754 mmHg 78%
05:00 +7°C° 0 mm 4 m/s 754 mmHg 75%
06:00 +8°C° 0 mm 5 m/s 754 mmHg 72%
07:00 +9°C° 0 mm 5 m/s 754 mmHg 68%
08:00 +10°C° 0 mm 5 m/s 755 mmHg 64%
09:00 +13°C° 0 mm 5 m/s 755 mmHg 59%
10:00 +14°C° 0 mm 6 m/s 755 mmHg 55%
11:00 +15°C° 0 mm 5 m/s 755 mmHg 53%
12:00 +15°C° 0 mm 5 m/s 755 mmHg 51%
13:00 +16°C° 0 mm 5 m/s 755 mmHg 49%
14:00 +16°C° 0 mm 5 m/s 755 mmHg 51%
15:00 +17°C° 0 mm 4 m/s 754 mmHg 53%
16:00 +15°C° 0 mm 4 m/s 754 mmHg 55%
17:00 +13°C° 0 mm 3 m/s 754 mmHg 62%
18:00 +12°C° 0 mm 3 m/s 755 mmHg 69%
19:00 +10°C° 0 mm 2 m/s 755 mmHg 75%
20:00 +9°C° 0 mm 2 m/s 755 mmHg 78%
21:00 +9°C° 0 mm 2 m/s 755 mmHg 80%
22:00 +8°C° 0 mm 2 m/s 755 mmHg 82%
23:00 +8°C° 0 mm 2 m/s 755 mmHg 82%

Mâine, 19 Septembrie, Sâmbătă

Timp Temperatura Precipitaţii Vânt Presiune Umiditate
00:00 +7°C° 0 mm 2 m/s 755 mmHg 83%
01:00 +7°C° 0 mm 2 m/s 755 mmHg 83%
02:00 +6°C° 0 mm 2 m/s 755 mmHg 85%
03:00 +6°C° 0 mm 2 m/s 754 mmHg 86%
04:00 +6°C° 0 mm 2 m/s 754 mmHg 87%
05:00 +6°C° 0 mm 2 m/s 754 mmHg 83%
06:00 +7°C° 0 mm 2 m/s 754 mmHg 78%
07:00 +8°C° 0 mm 2 m/s 754 mmHg 73%
08:00 +10°C° 0 mm 2 m/s 754 mmHg 66%
09:00 +13°C° 0 mm 2 m/s 754 mmHg 59%
10:00 +15°C° 0 mm 2 m/s 754 mmHg 52%
11:00 +16°C° 0 mm 2 m/s 754 mmHg 50%
12:00 +17°C° 0 mm 2 m/s 754 mmHg 48%
13:00 +18°C° 0 mm 2 m/s 754 mmHg 46%
14:00 +18°C° 0 mm 2 m/s 753 mmHg 50%
15:00 +18°C° 0 mm 2 m/s 753 mmHg 54%
16:00 +19°C° 0 mm 1 m/s 753 mmHg 58%
17:00 +16°C° 0 mm 1 m/s 753 mmHg 65%
18:00 +14°C° 0 mm 1 m/s 753 mmHg 72%
19:00 +12°C° 0 mm 1 m/s 753 mmHg 79%
20:00 +12°C° 0 mm 1 m/s 753 mmHg 82%
21:00 +12°C° 0 mm 1 m/s 753 mmHg 85%
22:00 +11°C° 0 mm 1 m/s 753 mmHg 89%
23:00 +11°C° 0 mm 1 m/s 753 mmHg 90%

Poimâine, 20 Septembrie, Duminică

Timp Temperatura Precipitaţii Vânt Presiune Umiditate
00:00 +11°C° 0 mm 1 m/s 753 mmHg 91%
01:00 +11°C° 0 mm 1 m/s 753 mmHg 93%
02:00 +11°C° 0 mm 1 m/s 753 mmHg 93%
03:00 +10°C° 0 mm 1 m/s 753 mmHg 94%
04:00 +10°C° 0 mm 1 m/s 753 mmHg 95%
05:00 +11°C° 0 mm 1 m/s 753 mmHg 93%
06:00 +12°C° 0 mm 1 m/s 753 mmHg 92%
07:00 +12°C° 0 mm 1 m/s 753 mmHg 90%
08:00 +14°C° 0 mm 2 m/s 753 mmHg 83%
09:00 +16°C° 0 mm 2 m/s 753 mmHg 76%
10:00 +18°C° 0 mm 2 m/s 753 mmHg 69%
11:00 +18°C° 0 mm 2 m/s 753 mmHg 64%
12:00 +19°C° 0 mm 2 m/s 753 mmHg 60%
13:00 +20°C° 0 mm 2 m/s 753 mmHg 56%
14:00 +20°C° 0 mm 2 m/s 752 mmHg 57%
15:00 +20°C° 0 mm 2 m/s 752 mmHg 58%
16:00 +20°C° 0 mm 1 m/s 751 mmHg 60%
17:00 +18°C° 0 mm 1 m/s 752 mmHg 64%
18:00 +15°C° 0 mm 1 m/s 752 mmHg 69%
19:00 +13°C° 0 mm 1 m/s 752 mmHg 73%
20:00 +13°C° 0 mm 1 m/s 752 mmHg 73%
21:00 +12°C° 0 mm 1 m/s 752 mmHg 72%
22:00 +12°C° 0 mm 1 m/s 752 mmHg 72%
23:00 +11°C° 0 mm 1 m/s 751 mmHg 72%

21 Septembrie, Luni

Timp Temperatura Precipitaţii Vânt Presiune Umiditate
00:00 +11°C° 0 mm 1 m/s 751 mmHg 72%
01:00 +10°C° 0 mm 1 m/s 751 mmHg 73%
02:00 +10°C° 0 mm 1 m/s 751 mmHg 76%
03:00 +9°C° 0 mm 1 m/s 751 mmHg 79%
04:00 +9°C° 0 mm 1 m/s 751 mmHg 82%
05:00 +9°C° 0 mm 1 m/s 751 mmHg 80%
06:00 +10°C° 0 mm 1 m/s 751 mmHg 79%
07:00 +11°C° 0 mm 1 m/s 751 mmHg 77%
08:00 +14°C° 0 mm 1 m/s 751 mmHg 70%
09:00 +16°C° 0 mm 1 m/s 751 mmHg 63%
10:00 +18°C° 0 mm 2 m/s 751 mmHg 56%
11:00 +19°C° 0 mm 2 m/s 751 mmHg 53%
12:00 +20°C° 0 mm 2 m/s 750 mmHg 50%
13:00 +21°C° 0 mm 2 m/s 750 mmHg 47%
14:00 +22°C° 0 mm 1 m/s 750 mmHg 50%
15:00 +22°C° 0 mm 1 m/s 749 mmHg 53%
16:00 +21°C° 0 mm 1 m/s 749 mmHg 55%
17:00 +19°C° 0 mm 1 m/s 749 mmHg 61%
18:00 +16°C° 0 mm 1 m/s 749 mmHg 66%
19:00 +14°C° 0 mm 1 m/s 749 mmHg 71%
20:00 +14°C° 0 mm 1 m/s 749 mmHg 73%
21:00 +13°C° 0 mm 1 m/s 749 mmHg 74%
22:00 +13°C° 0 mm 1 m/s 749 mmHg 75%
23:00 +12°C° 0 mm 1 m/s 748 mmHg 76%

22 Septembrie, Marţi

Timp Temperatura Precipitaţii Vânt Presiune Umiditate
00:00 +12°C° 0 mm 2 m/s 748 mmHg 77%
01:00 +12°C° 0 mm 2 m/s 748 mmHg 78%
02:00 +10°C° 0 mm 2 m/s 748 mmHg 79%
03:00 +10°C° 0 mm 2 m/s 747 mmHg 80%
04:00 +10°C° 0 mm 2 m/s 747 mmHg 81%
05:00 +12°C° 0 mm 2 m/s 747 mmHg 79%
06:00 +13°C° 0 mm 2 m/s 747 mmHg 76%
07:00 +14°C° 0 mm 2 m/s 747 mmHg 74%
08:00 +16°C° 0 mm 3 m/s 747 mmHg 68%
09:00 +19°C° 0 mm 3 m/s 747 mmHg 62%
10:00 +21°C° 0 mm 4 m/s 746 mmHg 56%
11:00 +22°C° 0 mm 4 m/s 746 mmHg 52%
12:00 +25°C° 0 mm 5 m/s 746 mmHg 48%
13:00 +26°C° 0 mm 6 m/s 745 mmHg 44%
14:00 +25°C° 0 mm 5 m/s 745 mmHg 47%
15:00 +25°C° 0 mm 5 m/s 744 mmHg 50%
16:00 +23°C° 0 mm 4 m/s 744 mmHg 53%
17:00 +22°C° 0 mm 4 m/s 743 mmHg 55%
18:00 +20°C° 0 mm 4 m/s 743 mmHg 58%
19:00 +19°C° 0 mm 4 m/s 743 mmHg 60%
20:00 +18°C° 0 mm 4 m/s 743 mmHg 61%
21:00 +18°C° 0 mm 4 m/s 743 mmHg 63%
22:00 +17°C° 0 mm 4 m/s 743 mmHg 64%
23:00 +17°C° 0 mm 4 m/s 743 mmHg 66%

23 Septembrie, Miercuri

Timp Temperatura Precipitaţii Vânt Presiune Umiditate
00:00 +17°C° 0 mm 4 m/s 742 mmHg 68%
01:00 +15°C° 0 mm 4 m/s 742 mmHg 69%
02:00 +16°C° 0 mm 3 m/s 742 mmHg 71%
03:00 +14°C° 0 mm 3 m/s 742 mmHg 72%
04:00 +14°C° 0 mm 3 m/s 742 mmHg 74%
05:00 +16°C° 0 mm 3 m/s 742 mmHg 71%
06:00 +15°C° 0 mm 4 m/s 741 mmHg 69%
07:00 +17°C° 0 mm 4 m/s 741 mmHg 66%
08:00 +19°C° 0 mm 4 m/s 741 mmHg 61%
09:00 +20°C° 0 mm 4 m/s 741 mmHg 56%
10:00 +22°C° 0 mm 4 m/s 741 mmHg 51%
11:00 +23°C° 0 mm 4 m/s 741 mmHg 50%
12:00 +25°C° 0 mm 4 m/s 741 mmHg 49%
13:00 +26°C° 0 mm 4 m/s 741 mmHg 48%
14:00 +25°C° 0 mm 4 m/s 740 mmHg 52%
15:00 +25°C° 0 mm 3 m/s 740 mmHg 57%
16:00 +24°C° 0 mm 2 m/s 740 mmHg 61%
17:00 +23°C° 0 mm 2 m/s 740 mmHg 64%
18:00 +20°C° 0 mm 2 m/s 740 mmHg 68%
19:00 +19°C° 0 mm 3 m/s 739 mmHg 71%
20:00 +19°C° 0.6 mm 3 m/s 739 mmHg 76%
21:00 +18°C° 0.6 mm 3 m/s 739 mmHg 81%
22:00 +18°C° 0.6 mm 3 m/s 740 mmHg 86%
23:00 +17°C° 0 mm 3 m/s 740 mmHg 87%
Arată mai mult